| time (UTC) | temp C | wind direction | speed KPH | gust KPH | rain 1hr cm | rain 24hr cm | rain mn cm | humidity % | barometer mb |
| 20260508220146 | 19 | 211 | 9.7 | 19.3 | 0.00 | 0.00 | 0.00 | 42 | 1005.7 |
| 20260508215646 | 19 | 296 | 8.0 | 20.9 | 0.00 | 0.00 | 0.00 | 38 | 1005.6 |
| 20260508215409 | 19 | 219 | 6.4 | 17.7 | 0.00 | 0.00 | 0.00 | 42 | 1005.6 |
| 20260508214638 | 19 | 215 | 6.4 | 17.7 | 0.00 | 0.00 | 0.00 | 42 | 1005.7 |
| 20260508214132 | 18 | 280 | 6.4 | 17.7 | 0.00 | 0.00 | 0.00 | 42 | 1005.7 |
| 20260508213625 | 18 | 227 | 6.4 | 17.7 | 0.00 | 0.00 | 0.00 | 41 | 1005.7 |
| 20260508213344 | 18 | 186 | 6.4 | 17.7 | 0.00 | 0.00 | 0.00 | 40 | 1005.8 |
| 20260508212609 | 18 | 192 | 8.0 | 19.3 | 0.00 | 0.00 | 0.00 | 39 | 1005.9 |
| 20260508212321 | 19 | 224 | 8.0 | 19.3 | 0.00 | 0.00 | 0.00 | 37 | 1005.8 |
| 20260508211602 | 20 | 288 | 8.0 | 19.3 | 0.00 | 0.00 | 0.00 | 37 | 1005.8 |
| 20260508211056 | 19 | 293 | 8.0 | 24.1 | 0.00 | 0.00 | 0.00 | 37 | 1005.8 |
| 20260508210812 | 20 | 182 | 6.4 | 24.1 | 0.00 | 0.00 | 0.00 | 37 | 1005.8 |
| 20260508210042 | 19 | 217 | 6.4 | 16.1 | 0.00 | 0.00 | 0.00 | 40 | 1005.8 |
| 20260508205802 | 18 | 201 | 8.0 | 16.1 | 0.00 | 0.00 | 0.00 | 41 | 1005.8 |
| 20260508205244 | 18 | 268 | 8.0 | 20.9 | 0.00 | 0.00 | 0.00 | 42 | 1006.0 |
| 20260508204745 | 18 | 182 | 4.8 | 20.9 | 0.00 | 0.00 | 0.00 | 44 | 1006.1 |
| 20260508204012 | 17 | 200 | 4.8 | 12.9 | 0.00 | 0.00 | 0.00 | 46 | 1006.1 |
| 20260508203506 | 18 | 177 | 4.8 | 12.9 | 0.00 | 0.00 | 0.00 | 43 | 1006.2 |
| 20260508202953 | 18 | 213 | 6.4 | 14.5 | 0.00 | 0.00 | 0.00 | 43 | 1006.2 |
| 20260508202450 | 18 | 265 | 6.4 | 14.5 | 0.00 | 0.00 | 0.00 | 41 | 1006.2 |
| 20260508201944 | 19 | 214 | 8.0 | 14.5 | 0.00 | 0.00 | 0.00 | 40 | 1006.3 |
| 20260508201434 | 20 | 157 | 6.4 | 16.1 | 0.00 | 0.00 | 0.00 | 41 | 1006.3 |
| 20260508201153 | 19 | 178 | 6.4 | 16.1 | 0.00 | 0.00 | 0.00 | 38 | 1006.4 |
| 20260508200426 | 19 | 266 | 6.4 | 14.5 | 0.00 | 0.00 | 0.00 | 38 | 1006.5 |
| 20260508195920 | 20 | 225 | 8.0 | 37.0 | 0.00 | 0.00 | 0.00 | 40 | 1006.8 |
| 20260508195409 | 20 | 257 | 8.0 | 37.0 | 0.00 | 0.00 | 0.00 | 37 | 1006.9 |
| 20260508194909 | 20 | 218 | 6.4 | 17.7 | 0.00 | 0.00 | 0.00 | 35 | 1006.7 |
| 20260508194621 | 20 | 269 | 8.0 | 19.3 | 0.00 | 0.00 | 0.00 | 37 | 1006.9 |
| 20260508194111 | 19 | 252 | 8.0 | 19.3 | 0.00 | 0.00 | 0.00 | 36 | 1006.9 |
| 20260508193615 | 19 | 200 | 6.4 | 25.7 | 0.00 | 0.00 | 0.00 | 39 | 1007.0 |
| 20260508192844 | 18 | 191 | 8.0 | 25.7 | 0.00 | 0.00 | 0.00 | 39 | 1007.0 |
| 20260508192331 | 18 | 248 | 6.4 | 19.3 | 0.00 | 0.00 | 0.00 | 40 | 1007.2 |
| 20260508191828 | 18 | 207 | 8.0 | 19.3 | 0.00 | 0.00 | 0.00 | 40 | 1007.2 |
| 20260508191320 | 18 | 196 | 6.4 | 17.7 | 0.00 | 0.00 | 0.00 | 41 | 1007.3 |
| 20260508190813 | 18 | 146 | 4.8 | 16.1 | 0.00 | 0.00 | 0.00 | 42 | 1007.4 |
| 20260508190302 | 18 | 333 | 3.2 | 11.3 | 0.00 | 0.00 | 0.00 | 41 | 1007.5 |
| 20260508185758 | 17 | 273 | 4.8 | 20.9 | 0.00 | 0.00 | 0.00 | 41 | 1007.6 |
| 20260508185249 | 17 | 236 | 8.0 | 20.9 | 0.00 | 0.00 | 0.00 | 40 | 1007.8 |
| 20260508184744 | 18 | 214 | 8.0 | 20.9 | 0.00 | 0.00 | 0.00 | 41 | 1007.8 |
| 20260508184501 | 18 | 242 | 8.0 | 20.9 | 0.00 | 0.00 | 0.00 | 42 | 1007.8 |
| 20260508183732 | 17 | 229 | 8.0 | 22.5 | 0.00 | 0.00 | 0.00 | 41 | 1007.8 |
| 20260508183447 | 18 | 236 | 8.0 | 22.5 | 0.00 | 0.00 | 0.00 | 42 | 1008.0 |
| 20260508182720 | 18 | 211 | 9.7 | 25.7 | 0.00 | 0.00 | 0.00 | 39 | 1007.9 |
| 20260508182209 | 18 | 262 | 11.3 | 29.0 | 0.00 | 0.00 | 0.00 | 37 | 1007.9 |
| 20260508181707 | 18 | 235 | 6.4 | 29.0 | 0.00 | 0.00 | 0.00 | 39 | 1008.0 |
| 20260508181202 | 18 | 178 | 4.8 | 16.1 | 0.00 | 0.00 | 0.00 | 40 | 1008.0 |
| 20260508181133 | 18 | 335 | 4.8 | 17.7 | 0.00 | 0.00 | 0.00 | 42 | 1007.9 |
| 20260508180150 | 18 | 254 | 4.8 | 17.7 | 0.00 | 0.00 | 0.00 | 42 | 1008.0 |
| 20260508175639 | 18 | 227 | 4.8 | 12.9 | 0.00 | 0.00 | 0.00 | 43 | 1008.1 |
| 20260508175136 | 17 | 148 | 6.4 | 16.1 | 0.00 | 0.00 | 0.00 | 45 | 1008.4 |
| 20260508174628 | 17 | 196 | 6.4 | 16.1 | 0.00 | 0.00 | 0.00 | 44 | 1008.5 |
| 20260508174122 | 17 | 254 | 6.4 | 12.9 | 0.00 | 0.00 | 0.00 | 43 | 1008.6 |
| 20260508173610 | 18 | 238 | 6.4 | 17.7 | 0.00 | 0.00 | 0.00 | 43 | 1008.7 |
| 20260508173105 | 18 | 261 | 6.4 | 17.7 | 0.00 | 0.00 | 0.00 | 41 | 1008.7 |
| 20260508172558 | 17 | 213 | 6.4 | 14.5 | 0.00 | 0.00 | 0.00 | 48 | 1008.9 |
| 20260508172536 | 17 | 177 | 8.0 | 17.7 | 0.00 | 0.00 | 0.00 | 43 | 1008.9 |
| 20260508171539 | 17 | 194 | 8.0 | 17.7 | 0.00 | 0.00 | 0.00 | 43 | 1009.0 |
| 20260508171036 | 17 | 280 | 6.4 | 16.1 | 0.00 | 0.00 | 0.00 | 42 | 1009.0 |
| 20260508170528 | 17 | 175 | 6.4 | 19.3 | 0.00 | 0.00 | 0.00 | 43 | 1009.1 |
| 20260508170022 | 16 | 227 | 6.4 | 19.3 | 0.00 | 0.00 | 0.00 | 44 | 1009.2 |
| 20260508165509 | 16 | 236 | 4.8 | 12.9 | 0.00 | 0.00 | 0.00 | 46 | 1009.4 |
| 20260508165007 | 16 | 269 | 6.4 | 14.5 | 0.00 | 0.00 | 0.00 | 44 | 1009.5 |
| 20260508164724 | 16 | 186 | 6.4 | 14.5 | 0.00 | 0.00 | 0.00 | 48 | 1009.5 |
| 20260508163956 | 16 | 217 | 6.4 | 17.7 | 0.00 | 0.00 | 0.00 | 45 | 1009.7 |
| 20260508163715 | 16 | 334 | 6.4 | 17.7 | 0.00 | 0.00 | 0.00 | 45 | 1009.8 |
| 20260508162944 | 16 | 171 | 8.0 | 16.1 | 0.00 | 0.00 | 0.00 | 46 | 1009.8 |
| 20260508162438 | 16 | 195 | 8.0 | 16.1 | 0.00 | 0.00 | 0.00 | 44 | 1009.8 |
| 20260508161927 | 16 | 215 | 8.0 | 12.9 | 0.00 | 0.00 | 0.00 | 44 | 1009.8 |
| 20260508161426 | 16 | 280 | 6.4 | 12.9 | 0.00 | 0.00 | 0.00 | 43 | 1009.9 |
| 20260508160920 | 16 | 273 | 4.8 | 11.3 | 0.00 | 0.00 | 0.00 | 44 | 1009.9 |
| 20260508160418 | 16 | 294 | 4.8 | 14.5 | 0.00 | 0.00 | 0.00 | 44 | 1010.0 |
| 20260508155918 | 15 | 279 | 3.2 | 14.5 | 0.00 | 0.00 | 0.00 | 44 | 1009.9 |
| 20260508155415 | 15 | 194 | 4.8 | 11.3 | 0.00 | 0.00 | 0.00 | 49 | 1010.0 |
| 20260508154914 | 15 | 141 | 4.8 | 9.7 | 0.00 | 0.00 | 0.00 | 49 | 1010.0 |
| 20260508154412 | 15 | 197 | 3.2 | 9.7 | 0.00 | 0.00 | 0.00 | 50 | 1010.1 |
| 20260508153912 | 15 | 306 | 3.2 | 9.7 | 0.00 | 0.00 | 0.00 | 49 | 1010.1 |
| 20260508153412 | 15 | 311 | 4.8 | 8.0 | 0.00 | 0.00 | 0.00 | 50 | 1010.1 |
| 20260508152910 | 14 | 9 | 4.8 | 11.3 | 0.00 | 0.00 | 0.00 | 50 | 1010.1 |
| 20260508152409 | 15 | 273 | 4.8 | 11.3 | 0.00 | 0.00 | 0.00 | 50 | 1010.2 |
| 20260508152352 | 15 | 282 | 3.2 | 9.7 | 0.00 | 0.00 | 0.00 | 52 | 1010.2 |
| 20260508151410 | 14 | 146 | 3.2 | 8.0 | 0.00 | 0.00 | 0.00 | 52 | 1010.3 |
| 20260508150910 | 13 | 30 | 4.8 | 12.9 | 0.00 | 0.00 | 0.00 | 52 | 1010.4 |
| 20260508150631 | 13 | 173 | 6.4 | 12.9 | 0.00 | 0.00 | 0.00 | 52 | 1010.4 |
| 20260508145910 | 13 | 280 | 4.8 | 11.3 | 0.00 | 0.00 | 0.00 | 52 | 1010.4 |
| 20260508145412 | 13 | 24 | 3.2 | 9.7 | 0.00 | 0.00 | 0.00 | 53 | 1010.4 |
| 20260508145142 | 13 | 323 | 4.8 | 9.7 | 0.00 | 0.00 | 0.00 | 53 | 1010.4 |
| 20260508144412 | 13 | 317 | 3.2 | 8.0 | 0.00 | 0.00 | 0.00 | 54 | 1010.4 |
| 20260508143910 | 13 | 210 | 3.2 | 8.0 | 0.00 | 0.00 | 0.00 | 57 | 1010.4 |
| 20260508143404 | 13 | 159 | 3.2 | 8.0 | 0.00 | 0.00 | 0.00 | 56 | 1010.5 |
| 20260508142858 | 12 | 277 | 4.8 | 11.3 | 0.00 | 0.00 | 0.00 | 59 | 1010.6 |
| 20260508142347 | 12 | 105 | 4.8 | 11.3 | 0.00 | 0.00 | 0.00 | 57 | 1010.6 |
| 20260508141846 | 13 | 21 | 3.2 | 9.7 | 0.00 | 0.00 | 0.00 | 55 | 1010.6 |
| 20260508141333 | 13 | 57 | 3.2 | 9.7 | 0.00 | 0.00 | 0.00 | 62 | 1010.7 |
| 20260508140834 | 12 | 205 | 4.8 | 9.7 | 0.00 | 0.00 | 0.00 | 64 | 1010.7 |
| 20260508140328 | 12 | 285 | 1.6 | 8.0 | 0.00 | 0.00 | 0.00 | 63 | 1010.7 |
| 20260508135817 | 12 | 115 | 1.6 | 6.4 | 0.00 | 0.00 | 0.00 | 64 | 1010.7 |
| 20260508135312 | 12 | 283 | 1.6 | 6.4 | 0.00 | 0.00 | 0.00 | 66 | 1010.8 |
| 20260508134810 | 11 | 96 | 3.2 | 8.0 | 0.00 | 0.00 | 0.00 | 67 | 1010.8 |
| 20260508134304 | 11 | 32 | 3.2 | 8.0 | 0.00 | 0.00 | 0.00 | 69 | 1010.8 |
| 20260508133758 | 11 | 321 | 3.2 | 6.4 | 0.00 | 0.00 | 0.00 | 70 | 1010.8 |
| 20260508133252 | 11 | 242 | 1.6 | 6.4 | 0.00 | 0.00 | 0.00 | 71 | 1010.9 |
| 20260508132746 | 11 | 343 | 3.2 | 6.4 | 0.00 | 0.00 | 0.00 | 72 | 1010.8 |
| 20260508132235 | 11 | 51 | 3.2 | 8.0 | 0.00 | 0.00 | 0.00 | 72 | 1010.9 |
| 20260508131734 | 10 | 12 | 1.6 | 8.0 | 0.00 | 0.00 | 0.00 | 73 | 1010.9 |
| 20260508131228 | 10 | 294 | 1.6 | 4.8 | 0.00 | 0.00 | 0.00 | 76 | 1010.9 |
| 20260508130722 | 10 | 186 | 1.6 | 4.8 | 0.00 | 0.00 | 0.00 | 76 | 1010.8 |
| 20260508130213 | 10 | 284 | 1.6 | 3.2 | 0.00 | 0.00 | 0.00 | 77 | 1010.8 |
| 20260508125706 | 9 | 244 | 1.6 | 3.2 | 0.00 | 0.00 | 0.00 | 77 | 1010.9 |
| 20260508125205 | 9 | 221 | 1.6 | 3.2 | 0.00 | 0.00 | 0.00 | 78 | 1010.9 |
| 20260508124658 | 9 | 40 | 1.6 | 4.8 | 0.00 | 0.00 | 0.00 | 78 | 1010.9 |
| 20260508124153 | 9 | 322 | 3.2 | 4.8 | 0.00 | 0.00 | 0.00 | 79 | 1010.8 |
| 20260508123642 | 9 | 297 | 1.6 | 4.8 | 0.00 | 0.00 | 0.00 | 79 | 1010.8 |
| 20260508123137 | 9 | 275 | 0.0 | 4.8 | 0.00 | 0.00 | 0.00 | 80 | 1010.8 |
| 20260508122630 | 9 | 232 | 1.6 | 4.8 | 0.00 | 0.00 | 0.00 | 81 | 1010.7 |
| 20260508122124 | 9 | 215 | 1.6 | 4.8 | 0.00 | 0.00 | 0.00 | 81 | 1010.7 |
| 20260508121614 | 9 | 225 | 0.0 | 1.6 | 0.00 | 0.00 | 0.00 | 82 | 1010.7 |
| 20260508121112 | 8 | 225 | 0.0 | 1.6 | 0.00 | 0.00 | 0.00 | 84 | 1010.7 |
| 20260508120606 | 8 | 225 | 0.0 | 0.0 | 0.00 | 0.00 | 0.00 | 87 | 1010.7 |
| 20260508120100 | 7 | 218 | 0.0 | 0.0 | 0.00 | 0.00 | 0.00 | 88 | 1010.6 |
| 20260508115554 | 7 | 218 | 0.0 | 3.2 | 0.00 | 0.00 | 0.00 | 89 | 1010.6 |
| 20260508115041 | 6 | 218 | 1.6 | 3.2 | 0.00 | 0.00 | 0.00 | 90 | 1010.5 |
| 20260508114542 | 6 | 218 | 0.0 | 3.2 | 0.00 | 0.00 | 0.00 | 90 | 1010.4 |
| 20260508114036 | 6 | 323 | 0.0 | 1.6 | 0.00 | 0.00 | 0.00 | 92 | 1010.2 |
| 20260508113530 | 5 | 323 | 0.0 | 0.0 | 0.00 | 0.00 | 0.00 | 91 | 1010.2 |
| 20260508113024 | 5 | 323 | 0.0 | 0.0 | 0.00 | 0.00 | 0.00 | 91 | 1010.2 |
| 20260508112518 | 5 | 323 | 0.0 | 0.0 | 0.00 | 0.00 | 0.00 | 91 | 1010.1 |
| 20260508112012 | 5 | 323 | 0.0 | 0.0 | 0.00 | 0.00 | 0.00 | 91 | 1010.1 |
| 20260508111502 | 5 | 323 | 0.0 | 0.0 | 0.00 | 0.00 | 0.00 | 92 | 1010.0 |
| 20260508111000 | 4 | 323 | 0.0 | 0.0 | 0.00 | 0.00 | 0.00 | 91 | 1010.0 |
| 20260508110453 | 4 | 323 | 0.0 | 0.0 | 0.00 | 0.00 | 0.00 | 91 | 1010.0 |
| 20260508110216 | 4 | 323 | 0.0 | 0.0 | 0.00 | 0.00 | 0.00 | 91 | 1010.0 |
| 20260508105442 | 4 | 323 | 0.0 | 0.0 | 0.00 | 0.00 | 0.00 | 90 | 1009.9 |
| 20260508104931 | 4 | 323 | 0.0 | 0.0 | 0.00 | 0.00 | 0.00 | 90 | 1009.9 |
| 20260508104430 | 4 | 323 | 0.0 | 0.0 | 0.00 | 0.00 | 0.00 | 90 | 1009.9 |
| 20260508103924 | 4 | 323 | 0.0 | 0.0 | 0.00 | 0.00 | 0.00 | 90 | 1009.8 |
| 20260508103418 | 4 | 323 | 0.0 | 0.0 | 0.00 | 0.00 | 0.00 | 90 | 1009.8 |
| 20260508102912 | 4 | 323 | 0.0 | 0.0 | 0.00 | 0.00 | 0.00 | 90 | 1009.8 |
| 20260508102405 | 4 | 323 | 0.0 | 0.0 | 0.00 | 0.00 | 0.00 | 90 | 1009.8 |
| 20260508101900 | 4 | 323 | 0.0 | 0.0 | 0.00 | 0.00 | 0.00 | 90 | 1009.8 |
| 20260508101347 | 4 | 323 | 0.0 | 0.0 | 0.00 | 0.00 | 0.00 | 89 | 1009.8 |
| 20260508100847 | 5 | 323 | 0.0 | 0.0 | 0.00 | 0.00 | 0.00 | 89 | 1009.7 |
| 20260508100342 | 5 | 323 | 0.0 | 0.0 | 0.00 | 0.00 | 0.00 | 89 | 1009.8 |
| 20260508100058 | 5 | 323 | 0.0 | 0.0 | 0.00 | 0.00 | 0.00 | 89 | 1009.7 |
| 20260508095329 | 5 | 323 | 0.0 | 0.0 | 0.00 | 0.00 | 0.00 | 88 | 1009.7 |
| 20260508094817 | 5 | 323 | 0.0 | 3.2 | 0.00 | 0.00 | 0.00 | 88 | 1009.8 |
| 20260508094318 | 5 | 323 | 1.6 | 3.2 | 0.00 | 0.00 | 0.00 | 88 | 1009.8 |
| 20260508093812 | 5 | 305 | 0.0 | 3.2 | 0.00 | 0.00 | 0.00 | 88 | 1009.8 |
| 20260508093306 | 5 | 277 | 0.0 | 0.0 | 0.00 | 0.00 | 0.00 | 87 | 1009.8 |
| 20260508092800 | 5 | 277 | 0.0 | 0.0 | 0.00 | 0.00 | 0.00 | 87 | 1009.7 |
| 20260508092254 | 5 | 277 | 0.0 | 4.8 | 0.00 | 0.00 | 0.00 | 87 | 1009.7 |
| 20260508091748 | 5 | 277 | 1.6 | 4.8 | 0.00 | 0.00 | 0.00 | 87 | 1009.8 |
| 20260508091238 | 5 | 277 | 1.6 | 4.8 | 0.00 | 0.00 | 0.00 | 87 | 1009.8 |
| 20260508090736 | 5 | 312 | 1.6 | 4.8 | 0.00 | 0.00 | 0.00 | 86 | 1009.9 |
| 20260508090230 | 5 | 277 | 0.0 | 0.0 | 0.00 | 0.00 | 0.00 | 86 | 1009.8 |
| 20260508085723 | 6 | 277 | 0.0 | 1.6 | 0.00 | 0.00 | 0.00 | 86 | 1009.8 |
| 20260508085218 | 6 | 277 | 0.0 | 4.8 | 0.00 | 0.00 | 0.00 | 85 | 1009.8 |
| 20260508084926 | 6 | 277 | 1.6 | 4.8 | 0.00 | 0.00 | 0.00 | 85 | 1009.8 |
| 20260508084206 | 6 | 269 | 1.6 | 4.8 | 0.00 | 0.00 | 0.00 | 85 | 1009.8 |
| 20260508083700 | 6 | 269 | 1.6 | 4.8 | 0.00 | 0.00 | 0.00 | 84 | 1009.8 |
| 20260508083418 | 6 | 273 | 1.6 | 4.8 | 0.00 | 0.00 | 0.00 | 84 | 1009.8 |
| 20260508082648 | 6 | 293 | 1.6 | 6.4 | 0.00 | 0.00 | 0.00 | 84 | 1009.8 |
| 20260508082137 | 6 | 271 | 1.6 | 6.4 | 0.00 | 0.00 | 0.00 | 83 | 1009.9 |
| 20260508081636 | 6 | 290 | 1.6 | 4.8 | 0.00 | 0.00 | 0.00 | 83 | 1009.9 |
| 20260508081126 | 6 | 309 | 1.6 | 4.8 | 0.00 | 0.00 | 0.00 | 83 | 1010.0 |
| 20260508080624 | 6 | 273 | 1.6 | 3.2 | 0.00 | 0.00 | 0.00 | 82 | 1010.0 |
| 20260508080118 | 7 | 285 | 1.6 | 4.8 | 0.00 | 0.00 | 0.00 | 82 | 1010.1 |
| 20260508075840 | 7 | 294 | 1.6 | 6.4 | 0.00 | 0.00 | 0.00 | 82 | 1010.0 |
| 20260508075105 | 7 | 196 | 1.6 | 6.4 | 0.00 | 0.00 | 0.00 | 82 | 1009.9 |
| 20260508074553 | 7 | 261 | 3.2 | 8.0 | 0.00 | 0.00 | 0.00 | 81 | 1010.0 |
| 20260508074315 | 7 | 263 | 3.2 | 8.0 | 0.00 | 0.00 | 0.00 | 81 | 1010.2 |
| 20260508073630 | 7 | 241 | 1.6 | 8.0 | 0.00 | 0.00 | 0.00 | 81 | 1010.2 |
| 20260508072535 | 7 | 255 | 3.2 | 8.0 | 0.00 | 0.00 | 0.00 | 81 | 1010.2 |
| 20260508072026 | 7 | 234 | 3.2 | 9.7 | 0.00 | 0.00 | 0.00 | 81 | 1010.3 |
| 20260508071523 | 7 | 266 | 3.2 | 9.7 | 0.00 | 0.00 | 0.00 | 81 | 1010.2 |
| 20260508071018 | 7 | 267 | 3.2 | 8.0 | 0.00 | 0.00 | 0.00 | 81 | 1010.3 |
| 20260508070738 | 7 | 255 | 1.6 | 8.0 | 0.00 | 0.00 | 0.00 | 82 | 1010.2 |
| 20260508070228 | 7 | 236 | 1.6 | 8.0 | 0.00 | 0.00 | 0.00 | 81 | 1010.3 |
| 20260508065500 | 7 | 244 | 1.6 | 8.0 | 0.00 | 0.00 | 0.00 | 81 | 1010.2 |
| 20260508065435 | 7 | 254 | 1.6 | 4.8 | 0.00 | 0.00 | 0.00 | 81 | 1010.2 |
| 20260508064443 | 7 | 232 | 1.6 | 6.4 | 0.00 | 0.00 | 0.00 | 81 | 1010.2 |
| 20260508063942 | 7 | 232 | 1.6 | 6.4 | 0.00 | 0.00 | 0.00 | 81 | 1010.2 |
| 20260508063435 | 7 | 225 | 1.6 | 3.2 | 0.00 | 0.00 | 0.00 | 81 | 1010.3 |
| 20260508062930 | 7 | 204 | 1.6 | 6.4 | 0.00 | 0.00 | 0.00 | 82 | 1010.3 |
| 20260508062644 | 7 | 204 | 1.6 | 6.4 | 0.00 | 0.00 | 0.00 | 82 | 1010.3 |
| 20260508061914 | 7 | 244 | 1.6 | 6.4 | 0.00 | 0.00 | 0.00 | 83 | 1010.4 |
| 20260508061412 | 6 | 240 | 0.0 | 3.2 | 0.00 | 0.00 | 0.00 | 82 | 1010.4 |
| 20260508060906 | 6 | 264 | 0.0 | 3.2 | 0.00 | 0.00 | 0.00 | 82 | 1010.3 |
| 20260508060400 | 7 | 279 | 0.0 | 4.8 | 0.00 | 0.00 | 0.00 | 81 | 1010.3 |
| 20260508055854 | 7 | 254 | 0.0 | 4.8 | 0.00 | 0.00 | 0.00 | 81 | 1010.3 |
| 20260508055347 | 7 | 222 | 0.0 | 1.6 | 0.00 | 0.00 | 0.00 | 81 | 1010.3 |
| 20260508054842 | 6 | 222 | 0.0 | 3.2 | 0.00 | 0.00 | 0.00 | 81 | 1010.3 |
| 20260508054329 | 7 | 222 | 0.0 | 3.2 | 0.00 | 0.00 | 0.00 | 81 | 1010.3 |
| 20260508054048 | 7 | 221 | 0.0 | 3.2 | 0.00 | 0.00 | 0.00 | 80 | 1010.3 |
| 20260508053324 | 7 | 232 | 0.0 | 3.2 | 0.00 | 0.00 | 0.00 | 80 | 1010.4 |
| 20260508052817 | 7 | 232 | 1.6 | 3.2 | 0.00 | 0.00 | 0.00 | 80 | 1010.4 |
| 20260508052535 | 7 | 232 | 1.6 | 3.2 | 0.00 | 0.00 | 0.00 | 79 | 1010.4 |
| 20260508051759 | 7 | 186 | 1.6 | 4.8 | 0.00 | 0.00 | 0.00 | 79 | 1010.4 |
| 20260508051300 | 7 | 186 | 1.6 | 4.8 | 0.00 | 0.00 | 0.00 | 78 | 1010.4 |
| 20260508050754 | 7 | 234 | 1.6 | 3.2 | 0.00 | 0.00 | 0.00 | 78 | 1010.4 |
| 20260508050510 | 7 | 234 | 0.0 | 3.2 | 0.00 | 0.00 | 0.00 | 77 | 1010.4 |
| 20260508045741 | 8 | 234 | 1.6 | 3.2 | 0.00 | 0.00 | 0.00 | 76 | 1010.4 |
| 20260508045726 | 8 | 234 | 1.6 | 4.8 | 0.00 | 0.00 | 0.00 | 76 | 1010.5 |
| 20260508044729 | 8 | 239 | 1.6 | 4.8 | 0.00 | 0.00 | 0.00 | 76 | 1010.5 |
| 20260508044217 | 8 | 232 | 1.6 | 4.8 | 0.00 | 0.00 | 0.00 | 75 | 1010.4 |
| 20260508043717 | 8 | 221 | 1.6 | 4.8 | 0.00 | 0.00 | 0.00 | 75 | 1010.5 |
| 20260508043212 | 8 | 236 | 1.6 | 8.0 | 0.00 | 0.00 | 0.00 | 75 | 1010.4 |
| 20260508042706 | 8 | 211 | 1.6 | 8.0 | 0.00 | 0.00 | 0.00 | 75 | 1010.4 |
| 20260508042429 | 8 | 196 | 3.2 | 4.8 | 0.00 | 0.00 | 0.00 | 74 | 1010.4 |
| 20260508041649 | 8 | 217 | 3.2 | 8.0 | 0.00 | 0.00 | 0.00 | 74 | 1010.3 |
| 20260508041148 | 8 | 262 | 3.2 | 8.0 | 0.00 | 0.00 | 0.00 | 73 | 1010.3 |
| 20260508040641 | 8 | 215 | 3.2 | 8.0 | 0.00 | 0.00 | 0.00 | 72 | 1010.3 |
| 20260508040136 | 9 | 208 | 3.2 | 6.4 | 0.00 | 0.00 | 0.00 | 72 | 1010.3 |
| 20260508035626 | 9 | 192 | 3.2 | 11.3 | 0.00 | 0.00 | 0.00 | 71 | 1010.3 |
| 20260508035120 | 9 | 209 | 4.8 | 11.3 | 0.00 | 0.00 | 0.00 | 70 | 1010.3 |
| 20260508034618 | 9 | 196 | 4.8 | 11.3 | 0.00 | 0.00 | 0.00 | 70 | 1010.3 |
| 20260508034118 | 9 | 186 | 3.2 | 11.3 | 0.00 | 0.00 | 0.00 | 69 | 1010.2 |
| 20260508033618 | 10 | 187 | 3.2 | 9.7 | 0.00 | 0.00 | 0.00 | 69 | 1010.3 |
| 20260508033118 | 10 | 197 | 3.2 | 9.7 | 0.00 | 0.00 | 0.00 | 69 | 1010.3 |
| 20260508032618 | 10 | 225 | 3.2 | 8.0 | 0.00 | 0.00 | 0.00 | 69 | 1010.4 |
| 20260508032340 | 10 | 203 | 3.2 | 9.7 | 0.00 | 0.00 | 0.00 | 68 | 1010.4 |
| 20260508031837 | 10 | 217 | 3.2 | 9.7 | 0.00 | 0.00 | 0.00 | 68 | 1010.5 |
| 20260508031121 | 10 | 194 | 3.2 | 9.7 | 0.00 | 0.00 | 0.00 | 67 | 1010.6 |
| 20260508030619 | 10 | 207 | 3.2 | 11.3 | 0.00 | 0.00 | 0.00 | 66 | 1010.6 |
| 20260508030113 | 10 | 207 | 3.2 | 11.3 | 0.00 | 0.00 | 0.00 | 66 | 1010.5 |
| 20260508025601 | 10 | 204 | 3.2 | 11.3 | 0.00 | 0.00 | 0.00 | 66 | 1010.7 |
| 20260508025059 | 10 | 241 | 4.8 | 11.3 | 0.00 | 0.00 | 0.00 | 66 | 1010.8 |
| 20260508024600 | 10 | 196 | 3.2 | 8.0 | 0.00 | 0.00 | 0.00 | 65 | 1010.8 |
| 20260508024100 | 10 | 198 | 3.2 | 8.0 | 0.00 | 0.00 | 0.00 | 65 | 1010.8 |
| 20260508023600 | 10 | 213 | 3.2 | 8.0 | 0.00 | 0.00 | 0.00 | 64 | 1010.7 |
| 20260508023100 | 10 | 204 | 3.2 | 8.0 | 0.00 | 0.00 | 0.00 | 66 | 1010.6 |
| 20260508022600 | 10 | 274 | 3.2 | 8.0 | 0.00 | 0.00 | 0.00 | 64 | 1010.6 |
| 20260508022103 | 10 | 188 | 3.2 | 8.0 | 0.00 | 0.00 | 0.00 | 64 | 1010.4 |
| 20260508021602 | 10 | 179 | 3.2 | 9.7 | 0.00 | 0.00 | 0.00 | 62 | 1010.5 |
| 20260508021057 | 10 | 244 | 3.2 | 9.7 | 0.00 | 0.00 | 0.00 | 60 | 1010.6 |
| 20260508020808 | 10 | 234 | 3.2 | 8.0 | 0.00 | 0.00 | 0.00 | 61 | 1010.7 |
| 20260508020044 | 10 | 205 | 4.8 | 14.5 | 0.00 | 0.00 | 0.00 | 60 | 1010.6 |
| 20260508015544 | 10 | 207 | 6.4 | 17.7 | 0.00 | 0.00 | 0.00 | 59 | 1010.7 |
| 20260508015536 | 11 | 257 | 4.8 | 17.7 | 0.00 | 0.00 | 0.00 | 58 | 1010.7 |
| 20260508014804 | 10 | 194 | 1.6 | 8.0 | 0.00 | 0.00 | 0.00 | 58 | 1010.7 |
| 20260508014045 | 11 | 225 | 1.6 | 4.8 | 0.00 | 0.00 | 0.00 | 57 | 1010.6 |
| 20260508013544 | 11 | 225 | 3.2 | 8.0 | 0.00 | 0.00 | 0.00 | 57 | 1010.4 |
| 20260508013047 | 11 | 246 | 4.8 | 12.9 | 0.00 | 0.00 | 0.00 | 57 | 1010.4 |
| 20260508012547 | 11 | 214 | 6.4 | 12.9 | 0.00 | 0.00 | 0.00 | 55 | 1010.4 |
| 20260508012040 | 11 | 235 | 6.4 | 20.9 | 0.00 | 0.00 | 0.00 | 56 | 1010.3 |
| 20260508011528 | 11 | 190 | 6.4 | 20.9 | 0.00 | 0.00 | 0.00 | 56 | 1010.2 |
| 20260508011505 | 11 | 249 | 4.8 | 11.3 | 0.00 | 0.00 | 0.00 | 53 | 1010.2 |
| 20260508010505 | 11 | 207 | 4.8 | 14.5 | 0.00 | 0.00 | 0.00 | 54 | 1010.1 |
| 20260508005952 | 10 | 271 | 3.2 | 14.5 | 0.00 | 0.00 | 0.00 | 56 | 1010.1 |
| 20260508005441 | 10 | 219 | 1.6 | 3.2 | 0.00 | 0.00 | 0.00 | 57 | 1010.1 |
| 20260508004940 | 10 | 289 | 1.6 | 3.2 | 0.00 | 0.00 | 0.00 | 55 | 1009.9 |
| 20260508004440 | 11 | 289 | 0.0 | 1.6 | 0.00 | 0.00 | 0.00 | 53 | 1009.8 |
| 20260508003940 | 11 | 289 | 0.0 | 3.2 | 0.00 | 0.00 | 0.00 | 52 | 1009.8 |
| 20260508003440 | 11 | 289 | 0.0 | 6.4 | 0.00 | 0.00 | 0.00 | 52 | 1009.8 |
| 20260508002941 | 11 | 289 | 1.6 | 9.7 | 0.00 | 0.00 | 0.00 | 51 | 1009.8 |
| 20260508002440 | 11 | 267 | 1.6 | 9.7 | 0.00 | 0.00 | 0.00 | 50 | 1009.8 |
| 20260508001943 | 11 | 286 | 1.6 | 6.4 | 0.00 | 0.00 | 0.00 | 50 | 1009.8 |
| 20260508001442 | 12 | 271 | 1.6 | 6.4 | 0.00 | 0.00 | 0.00 | 49 | 1009.8 |
| 20260508001158 | 12 | 269 | 1.6 | 6.4 | 0.00 | 0.00 | 0.00 | 49 | 1009.7 |
| 20260508000647 | 12 | 180 | 1.6 | 6.4 | 0.00 | 0.00 | 0.00 | 48 | 1009.7 |
| 20260507235924 | 12 | 251 | 4.8 | 14.5 | 0.00 | 0.00 | 0.00 | 49 | 1009.7 |
| 20260507235647 | 12 | 239 | 6.4 | 16.1 | 0.00 | 0.00 | 0.00 | 48 | 1009.8 |
| 20260507234924 | 12 | 278 | 4.8 | 16.1 | 0.00 | 0.00 | 0.00 | 46 | 1009.8 |
| 20260507234424 | 12 | 282 | 4.8 | 14.5 | 0.00 | 0.00 | 0.00 | 47 | 1009.7 |
| 20260507233924 | 12 | 295 | 6.4 | 14.5 | 0.00 | 0.00 | 0.00 | 47 | 1009.7 |
| 20260507233425 | 12 | 245 | 6.4 | 12.9 | 0.00 | 0.00 | 0.00 | 45 | 1009.7 |
| 20260507232926 | 12 | 277 | 6.4 | 14.5 | 0.00 | 0.00 | 0.00 | 46 | 1009.7 |
| 20260507232650 | 12 | 263 | 6.4 | 14.5 | 0.00 | 0.00 | 0.00 | 46 | 1009.8 |
| 20260507231921 | 12 | 288 | 6.4 | 11.3 | 0.00 | 0.00 | 0.00 | 47 | 1009.9 |
| 20260507231409 | 12 | 279 | 4.8 | 11.3 | 0.00 | 0.00 | 0.00 | 46 | 1009.9 |
| 20260507230900 | 12 | 240 | 4.8 | 11.3 | 0.00 | 0.00 | 0.00 | 50 | 1009.9 |
| 20260507230401 | 12 | 269 | 4.8 | 14.5 | 0.00 | 0.00 | 0.00 | 46 | 1010.0 |
| 20260507225900 | 12 | 295 | 4.8 | 14.5 | 0.00 | 0.00 | 0.00 | 46 | 1009.9 |
| 20260507225358 | 12 | 244 | 4.8 | 14.5 | 0.00 | 0.00 | 0.00 | 47 | 1009.9 |
| 20260507224858 | 12 | 248 | 6.4 | 14.5 | 0.00 | 0.00 | 0.00 | 46 | 1009.9 |
| 20260507224356 | 13 | 259 | 6.4 | 14.5 | 0.00 | 0.00 | 0.00 | 45 | 1010.1 |
| 20260507223856 | 13 | 292 | 6.4 | 17.7 | 0.00 | 0.00 | 0.00 | 44 | 1010.1 |
| 20260507223622 | 13 | 177 | 4.8 | 17.7 | 0.00 | 0.00 | 0.00 | 44 | 1010.1 |
| 20260507223119 | 13 | 283 | 6.4 | 12.9 | 0.00 | 0.00 | 0.00 | 44 | 1010.0 |
| 20260507222359 | 13 | 211 | 9.7 | 25.7 | 0.00 | 0.00 | 0.00 | 44 | 1010.0 |
| 20260507221854 | 13 | 256 | 11.3 | 25.7 | 0.00 | 0.00 | 0.00 | 42 | 1010.1 |
| 20260507221341 | 13 | 250 | 8.0 | 17.7 | 0.00 | 0.00 | 0.00 | 42 | 1010.0 |
| 20260507220842 | 13 | 204 | 8.0 | 22.5 | 0.00 | 0.00 | 0.00 | 42 | 1010.0 |